Tracking 31027 objects as of 19-Jul-2025
HD Live streaming from Space Station
objects crossing your sky now

ONEWEB-0054

Track ONEWEB-0054 now!
10-day predictions
ONEWEB-0054 is classified as:


NORAD ID: 45158
Int'l Code: 2020-008AD
Perigee: 1,227.5 km
Apogee: 1,230.2 km
Inclination: 87.9 °
Period: 109.9 minutes
Semi major axis: 7599 km
RCS: Unknown
Launch date: February 6, 2020
Source: United Kingdom (UK)
Launch site: TYURATAM MISSILE AND SPACE COMPLEX (TTMTR)
Your satellite tracking list
FENGYUN 1C DEB
Track 1 satellite(s)




NASA's NSSDC Master Catalog

Two Line Element Set (TLE):
1 45158U 20008AD  25199.47681269  .00000295  00000-0  80865-3 0  9998
2 45158  87.8819 102.8227 0001833  75.3159 284.8172 13.10375351264321
Source of the keplerian elements: AFSPC